Location: Wien
(48.2082°N, 16.3738°E)
Time: 10:11:04
(UTC+02:00)

UNISAT 6 - Pass Details

Date: 28 April 2024
Orbit: 593 x 668 km, 97.7° (Epoch: 20 May)

Event Time Altitude Azimuth Distance (km) Brightness Sun altitude
Rises 04:30:16 0° 159° (SSE) 2,902 ? -11.0°
Reaches altitude 10° 04:32:28 10° 157° (SSE) 1,988 ? -10.7°
Maximum altitude 04:36:46 70° 74° (ENE) 656 ? -10.1°
Drops below altitude 10° 04:41:00 10° 351° (N) 1,962 ? -9.5°
Sets 04:43:10 0° 349° (N) 2,862 ? -9.2°
